Location: Ferintosh
(52.7647°N, 112.9692°W)
Time: 14:20:13
(UTC+00:00)

Transit 2A - All Passes

Search period start: 18 May 2024 00:00
Search period end: 28 May 2024 00:00
Orbit: 594 x 957 km, 66.7° (Epoch: 17 May)

Date Brightness Start Highest point End Pass type
(mag) Time Alt. Az. Time Alt. Az. Time Alt. Az.
18 May - 07:07:32 10° S 07:11:57 44° ESE 07:16:50 10° NE visible
18 May - 08:50:33 10° WSW 08:55:08 42° NW 09:00:13 10° NE visible
18 May - 10:35:52 10° WNW 10:39:40 20° NNW 10:43:44 10° NE visible
18 May - 12:20:39 10° NW 12:24:43 21° NNE 12:29:03 10° ENE daylight
18 May - 14:03:54 10° NW 14:09:14 43° NE 14:15:00 10° ESE daylight
18 May - 15:47:00 10° NW 15:52:39 58° WSW 15:58:43 10° SSE daylight
18 May - 17:32:13 10° WNW 17:34:50 13° WSW 17:37:32 10° SW daylight
19 May - 06:32:50 10° S 06:36:57 31° ESE 06:41:26 10° NE visible
19 May - 08:15:08 10° WSW 08:19:49 54° NW 08:25:02 10° NE visible
19 May - 10:00:10 10° WNW 10:04:07 22° NNW 10:08:23 10° NNE visible
19 May - 11:45:16 10° NW 11:49:09 20° N 11:53:17 10° NE daylight
19 May - 13:28:45 10° NNW 13:33:52 35° NNE 13:39:22 10° E daylight
19 May - 15:11:46 10° NW 15:17:31 77° SW 15:23:42 10° SSE daylight
19 May - 16:56:03 10° WNW 16:59:58 19° WSW 17:04:01 10° SSW daylight
20 May - 05:58:24 10° SSE 06:02:01 22° ESE 06:05:54 10° ENE visible
20 May - 07:39:49 10° SW 07:44:33 72° NW 07:49:51 10° NE visible
20 May - 09:24:28 10° WNW 09:28:36 25° NNW 09:33:07 10° NNE visible
20 May - 11:09:49 10° NW 11:13:35 19° N 11:17:35 10° NE daylight
20 May - 12:53:34 10° NNW 12:58:26 30° NNE 13:03:40 10° E daylight
20 May - 14:36:34 10° NW 14:42:19 84° NE 14:48:32 10° SE daylight
20 May - 16:20:21 10° WNW 16:25:02 25° WSW 16:29:55 10° SSW daylight
21 May - 05:24:20 10° SE 05:27:09 16° ESE 05:30:05 10° ENE visible
21 May - 07:04:37 10° SW 07:09:20 85° SE 07:14:38 10° NE visible
21 May - 08:48:49 10° W 08:53:08 29° NNW 08:57:52 10° NNE visible
21 May - 10:34:16 10° NW 10:38:00 19° N 10:41:58 10° NE visible
21 May - 12:18:21 10° NNW 12:22:58 26° NNE 12:27:54 10° E daylight
21 May - 14:01:24 10° NW 14:07:05 66° NE 14:13:14 10° SE daylight
21 May - 15:44:51 10° NW 15:50:02 34° WSW 15:55:31 10° S daylight
22 May - 04:51:21 10° ESE 04:52:19 11° E 04:53:18 10° E visible
22 May - 06:29:34 10° SSW 06:34:13 62° ESE 06:39:23 10° NE visible
22 May - 08:13:12 10° W 08:17:42 35° NNW 08:22:39 10° NNE visible
22 May - 09:58:39 10° NW 10:02:25 20° N 10:06:27 10° NE visible
22 May - 11:43:06 10° NW 11:47:27 23° NNE 11:52:06 10° ENE daylight
22 May - 13:26:14 10° NW 13:31:47 53° NE 13:37:48 10° ESE daylight
22 May - 15:09:28 10° NW 15:14:59 45° WSW 15:20:51 10° S daylight
23 May - 05:54:41 10° S 05:59:08 44° ESE 06:04:04 10° NE visible
23 May - 07:37:40 10° WSW 07:42:19 43° NW 07:47:28 10° NE visible
23 May - 09:22:58 10° WNW 09:26:51 21° NNW 09:31:00 10° NE visible
23 May - 11:07:46 10° NW 11:11:54 21° NNE 11:16:19 10° ENE daylight
23 May - 12:51:04 10° NW 12:56:27 43° NE 13:02:15 10° ESE daylight
23 May - 14:34:11 10° NW 14:39:53 59° WSW 14:46:00 10° SSE daylight
23 May - 16:19:19 10° WNW 16:22:05 14° WSW 16:24:56 10° SW daylight
24 May - 05:20:00 10° S 05:24:08 31° ESE 05:28:40 10° NE visible
24 May - 07:02:15 10° WSW 07:06:59 56° NW 07:12:16 10° NE visible
24 May - 08:47:16 10° WNW 08:51:18 23° NNW 08:55:39 10° NE visible
24 May - 10:32:24 10° NW 10:36:21 20° N 10:40:33 10° NE visible
24 May - 12:15:54 10° NNW 12:21:04 35° NNE 12:26:37 10° E daylight
24 May - 13:58:57 10° NW 14:04:45 78° SW 14:10:58 10° SSE daylight
24 May - 15:43:11 10° WNW 15:47:12 19° WSW 15:51:21 10° SSW daylight
25 May - 04:45:33 10° SSE 04:49:12 22° ESE 04:53:07 10° ENE visible
25 May - 06:26:55 10° SW 06:31:43 73° NW 06:37:05 10° NE visible
25 May - 08:11:34 10° W 08:15:46 26° NNW 08:20:22 10° NNE visible
25 May - 09:56:55 10° NW 10:00:45 19° N 10:04:50 10° NE visible
25 May - 11:40:43 10° NNW 11:45:38 30° NNE 11:50:54 10° E daylight
25 May - 13:23:44 10° NW 13:29:32 83° NE 13:35:47 10° SE daylight
25 May - 15:07:30 10° WNW 15:12:16 26° WSW 15:17:14 10° SSW daylight
26 May - 04:11:30 10° SE 04:14:19 16° ESE 04:17:18 10° ENE daylight
26 May - 05:51:44 10° SW 05:56:31 84° SE 06:01:52 10° NE visible
26 May - 07:35:54 10° W 07:40:17 30° NNW 07:45:07 10° NNE visible
26 May - 09:21:21 10° NW 09:25:10 19° N 09:29:13 10° NE visible
26 May - 11:05:29 10° NNW 11:10:09 26° NNE 11:15:08 10° E daylight
26 May - 12:48:33 10° NW 12:54:18 66° NE 13:00:28 10° SE daylight
26 May - 14:32:00 10° NW 14:37:15 34° WSW 14:42:48 10° S daylight
27 May - 03:38:32 10° ESE 03:39:30 11° E 03:40:29 10° E daylight
27 May - 05:16:42 10° SSW 05:21:22 61° ESE 05:26:36 10° NE visible
27 May - 07:00:17 10° W 07:04:51 36° NNW 07:09:54 10° NNE visible
27 May - 08:45:43 10° NW 08:49:35 20° N 08:53:41 10° NE visible
27 May - 10:30:13 10° NW 10:34:38 23° NNE 10:39:20 10° ENE visible
27 May - 12:13:23 10° NW 12:18:59 52° NE 12:25:02 10° ESE daylight
27 May - 13:56:37 10° NW 14:02:12 46° WSW 14:08:06 10° S daylight
